Index of /

[ICO]NameLast modifiedSizeDescription

[IMG]10MinAvgWindSpeed.gif24-Jan-2018 00:48 4.4K 
[IMG]AirDensity.gif22-Mar-2017 09:28 4.8K 
[IMG]AirDensityHistory.gif22-Mar-2017 09:28 13K 
[TXT]AjuntamentGarriga01.htm24-Jan-2018 00:48 6.9K 
[IMG]Barometer.gif24-Jan-2018 00:48 5.8K 
[IMG]BarometerHistory.gif24-Jan-2018 00:48 12K 
[IMG]Cabecera.jpg11-May-2016 07:21 21K 
[IMG]Cabecera_original.jpg10-May-2016 16:41 57K 
[IMG]Cabecera_sensedavis_1.jpg10-May-2016 18:33 34K 
[IMG]Cabecera_sensedavis_2.jpg11-May-2016 07:01 20K 
[IMG]CoolDegDaysHistory.gif22-Mar-2017 09:28 12K 
[TXT]Current_Vantage.htm24-Mar-2017 09:13 13K 
[TXT]Current_Vantage_Pro_LaGarriga.htm24-Jan-2018 00:48 11K 
[IMG]Davis Logo.jpg10-May-2016 16:41 7.0K 
[IMG]DewPoint.gif22-Mar-2017 09:28 5.4K 
[IMG]DewPointHistory.gif22-Mar-2017 09:28 12K 
[IMG]EMC.gif22-Mar-2017 09:28 4.2K 
[IMG]EMCHistory.gif22-Mar-2017 09:28 12K 
[IMG]HeatDegDaysHistory.gif22-Mar-2017 09:28 12K 
[IMG]HeatIndex.gif22-Mar-2017 09:28 5.3K 
[IMG]HeatIndexHistory.gif22-Mar-2017 09:28 13K 
[IMG]HiWindSpeedHistory.gif24-Jan-2018 00:48 14K 
[IMG]HighWindDirHistory.gif24-Jan-2018 00:48 14K 
[IMG]InsideDewPoint.gif22-Mar-2017 09:28 4.4K 
[IMG]InsideDewPointHistory.gif22-Mar-2017 09:28 12K 
[IMG]InsideHeatIndex.gif22-Mar-2017 09:28 4.4K 
[IMG]InsideHeatIndexHistory.gif22-Mar-2017 09:28 12K 
[IMG]InsideHumidity.gif22-Mar-2017 09:28 5.5K 
[IMG]InsideHumidityHistory.gif22-Mar-2017 09:28 12K 
[IMG]InsideTemp.gif22-Mar-2017 09:28 5.4K 
[IMG]InsideTempHistory.gif22-Mar-2017 09:28 12K 
[IMG]MonthlyRain.gif24-Jan-2018 00:48 4.2K 
[TXT]NOAAMO.TXT24-Jan-2018 00:48 2.8K 
[TXT]NOAAPRMO.TXT24-Jan-2018 00:48 3.4K 
[TXT]NOAAPRYR.TXT24-Jan-2018 00:48 2.9K 
[TXT]NOAAYR.TXT24-Jan-2018 00:48 1.7K 
[IMG]OutsideHumidity.gif24-Jan-2018 00:48 5.5K 
[IMG]OutsideHumidityHistory.gif24-Jan-2018 00:48 12K 
[IMG]OutsideTemp.gif24-Jan-2018 00:48 5.4K 
[IMG]OutsideTempHistory.gif24-Jan-2018 00:48 12K 
[IMG]Rain.gif24-Jan-2018 00:48 4.5K 
[IMG]RainHistory.gif24-Jan-2018 00:48 11K 
[IMG]RainRate.gif24-Jan-2018 00:48 5.8K 
[IMG]RainRateHistory.gif24-Jan-2018 00:48 11K 
[IMG]RainStorm.gif24-Jan-2018 00:48 4.5K 
[IMG]ReceptionHistory.gif22-Mar-2017 09:28 11K 
[IMG]THW.gif22-Mar-2017 09:28 4.4K 
[IMG]THWHistory.gif22-Mar-2017 09:28 12K 
[IMG]WindChill.gif24-Jan-2018 00:48 4.5K 
[IMG]WindChillHistory.gif24-Jan-2018 00:48 13K 
[IMG]WindDirection.gif24-Jan-2018 00:48 4.5K 
[IMG]WindDirectionHistory.gif24-Jan-2018 00:48 13K 
[IMG]WindRunHistory.gif24-Jan-2018 00:48 14K 
[IMG]WindSpeed.gif24-Jan-2018 00:48 4.7K 
[IMG]WindSpeedHistory.gif24-Jan-2018 00:48 13K 
[IMG]YearlyRain.gif24-Jan-2018 00:48 4.3K 
[IMG]barra_azul.jpg31-Mar-2016 11:14 20K 
[IMG]barra_azul2.jpg31-Mar-2016 11:14 20K 
[IMG]barra_azul3.jpg31-Mar-2016 11:14 22K 
[IMG]barra_nom.jpg13-May-2016 18:58 7.4K 
[IMG]barra_nom_escutcolor.jpg10-May-2016 16:38 7.7K 
[IMG]barra_nom_original.jpg31-Mar-2016 11:14 26K 
[TXT]data.htm24-Jan-2018 00:48 422  
[DIR]datos/18-Jul-2016 14:29 -  
[IMG]imagenLG.jpg31-Mar-2016 11:08 70K 
[IMG]imagenLG_big.jpg31-Mar-2016 10:43 598K 
[TXT]meteoclimatic.htm24-Jan-2018 00:48 404  

Apache/2.2.22 (Debian) Server at meteo.lagarriga.cat Port 80